Regional Weather Roundup
Issued by NWS Green Bay, WI

Home | Current Version | Previous Version | Graphics & Text | Print | Product List | Glossary Off
Versions: 1 2 3 4 5 6 7 8 9 10 11 12 13 14 15 16 17 18 19 20 21 22 23 24 25 26 27 28 29 30 31 32 33 34 35 36 37 38 39 40 41 42 43 44 45 46 47 48 49 50

000
ASUS43 KGRB 300910
RWRGRB

NORTH-CENTRAL AND NORTHEAST WISCONSIN REGIONAL WEATHER ROUNDUP
NATIONAL WEATHER SERVICE GREEN BAY WI
400 AM CDT MON MAR 30 2015

WIZ005-009-010>012-018-019-301000-
NORTH CENTRAL WISCONSIN

CITY           SKY/WX    TMP DP  RH WIND       PRES   REMARKS
IRONWOOD       CLEAR     34  27  75 W13       29.77R
MANITOWISH WTR   N/A     32  26  80 W9        29.79S
ARBOR VITAE    CLEAR     36  28  75 W7        29.80S
EAGLE RIVER    CLEAR     32  24  73 W12       29.78S
LAND O LAKES   PTCLDY    33  27  77 W8        29.77S
RHINELANDER    CLEAR     31  25  78 W12       29.81S
PHILLIPS       CLEAR     32  26  78 W3        29.83S
ANTIGO         CLEAR     32  27  80 W9        29.82S
TOMAHAWK         N/A     33  26  72 W7        29.84S
MERRILL        CLEAR     32  27  83 W10       29.84S
$$

WIZ013-073-301000-
NORTHEAST WISCONSIN

CITY           SKY/WX    TMP DP  RH WIND       PRES   REMARKS
IRON MOUNTAIN  PTCLDY    35  26  69 W14G20    29.73S
MARINETTE      CLEAR     36  27  69 W7        29.78S
OCONTO         CLEAR     35  28  77 W12       29.82R
$$

WIZ017-030-035>037-045-301000-
CENTRAL WISCONSIN

CITY           SKY/WX    TMP DP  RH WIND       PRES   REMARKS
MEDFORD        CLEAR     32  26  78 W7        29.86S
WAUSAU         CLEAR     34  27  75 W13       29.85R
MOSINEE        CLEAR     30  28  93 SW6       29.88R
MARSHFIELD     CLEAR     34  26  72 W8        29.89S
WISC RAPIDS    CLEAR     32  24  72 W7        29.92S
STEVENS POINT  CLEAR     33  26  74 W8        29.89R
WAUPACA        CLEAR     35  27  74 W7        29.89R
SHAWANO        CLEAR     36  28  74 SW7       29.85S
CLINTONVILLE   CLEAR     34  28  80 W7        29.86S
$$

WIZ038-039-048-051-301000-
FOX VALLEY

CITY           SKY/WX    TMP DP  RH WIND       PRES   REMARKS
NWS GREEN BAY  CLEAR     36  29  75 W12       29.86R
APPLETON       CLEAR     32  28  86 W8        29.88R
OSHKOSH        CLEAR     36  27  69 W5        29.89S
FOND DU LAC    CLEAR     37  27  67 W10       29.90S
$$

WIZ022-050-052-301000-
EAST CENTRAL WISCONSIN

CITY           SKY/WX    TMP DP  RH WIND       PRES   REMARKS
STURGEON BAY   CLEAR     36  27  69 W12       29.82S
MANITOWOC      CLEAR     38  30  73 W15       29.86R
SHEBOYGAN      CLEAR     38  28  67 W8        29.88S
$$

LMZ563-521-522-541>543-301000-
LAKESHORE

STATION/POSITION TIME  TEMP    WIND        PRES    VSBY  WAVE
                       AIR SEA DIR/SP/G                  HT/PER
                 (UTC) (F)     (DEG/KT/KT) (MB)    (MI)  (FT/S)
SHEBOYGAN LKSHOR 0900   40     270/ 13/ 15 1012.5S
KEWAUNEE LKSHORE 0900   38     280/  8/ 12 1009.3R
NORTHPORT PIER   0900   36     260/  7/ 15 1007.8S
SISTER BAY LKSHO 0900   35     260/ 13/ 15   N/A
CHAMBERS ISLAND  0900   35     210/  7/ 12 1008.5F
MENOMINEE LKSHOR 0900   36     230/ 10     1009.2F
$$



USA.gov is the U.S. government's official web portal to all federal, state and local government web resources and services.